When you browse on this site, cookies collect data to enhance your experience and personalize the content and advertising you see.
Visit our Privacy Policy to learn more. By continuing to use the site, you agree to this use of cookies and data.
  • In Hungary
  • List of Countries
  • For 7 days
  • Water Temperature
  • Satellite Maps
  • Weather Map
  • News
  • Weather Widgets
  • user-avatar
    Login

    Hourly Weather Abadszalok

    Today, 23 February, Saturday

    Time Temperature Precipitation Wind Pressure Humidity
    00:00 -6°C° 0 mm 9 mps 768 mmHg 39%
    01:00 -6°C° 0 mm 9 mps 769 mmHg 37%
    02:00 -6°C° 0 mm 8 mps 769 mmHg 37%
    03:00 -7°C° 0 mm 8 mps 769 mmHg 37%
    04:00 -7°C° 0 mm 8 mps 770 mmHg 37%
    05:00 -7°C° 0 mm 7 mps 770 mmHg 38%
    06:00 -7°C° 0 mm 7 mps 771 mmHg 39%
    07:00 -6°C° 0 mm 6 mps 772 mmHg 39%
    08:00 -5°C° 0 mm 6 mps 772 mmHg 37%
    09:00 -6°C° 0 mm 7 mps 771 mmHg 36%
    10:00 -4°C° 0 mm 7 mps 771 mmHg 35%
    11:00 -3°C° 0 mm 7 mps 771 mmHg 35%
    12:00 -3°C° 0 mm 7 mps 771 mmHg 35%
    13:00 -2°C° 0 mm 6 mps 771 mmHg 35%
    14:00 -2°C° 0 mm 6 mps 771 mmHg 36%
    15:00 -2°C° 0 mm 6 mps 771 mmHg 38%
    16:00 -2°C° 0 mm 6 mps 770 mmHg 39%
    17:00 -2°C° 0 mm 5 mps 771 mmHg 43%
    18:00 -3°C° 0 mm 4 mps 771 mmHg 47%
    19:00 -4°C° 0 mm 4 mps 771 mmHg 51%
    20:00 -4°C° 0 mm 4 mps 771 mmHg 50%
    21:00 -4°C° 0 mm 4 mps 771 mmHg 50%
    22:00 -5°C° 0 mm 5 mps 771 mmHg 50%
    23:00 -4°C° 0 mm 4 mps 771 mmHg 50%

    Tomorrow, 24 February, Sunday

    Time Temperature Precipitation Wind Pressure Humidity
    00:00 -4°C° 0 mm 4 mps 771 mmHg 50%
    01:00 -5°C° 0 mm 3 mps 771 mmHg 50%
    02:00 -5°C° 0 mm 3 mps 771 mmHg 50%
    03:00 -5°C° 0 mm 3 mps 771 mmHg 50%
    04:00 -4°C° 0 mm 2 mps 771 mmHg 50%
    05:00 -4°C° 0 mm 2 mps 771 mmHg 49%
    06:00 -4°C° 0 mm 2 mps 771 mmHg 49%
    07:00 -4°C° 0 mm 2 mps 771 mmHg 49%
    08:00 -3°C° 0 mm 2 mps 771 mmHg 44%
    09:00 +1°C° 0 mm 1 mps 771 mmHg 39%
    10:00 +2°C° 0 mm 1 mps 771 mmHg 34%
    11:00 +2°C° 0 mm 1 mps 770 mmHg 32%
    12:00 +3°C° 0 mm 1 mps 770 mmHg 31%
    13:00 +4°C° 0 mm 1 mps 770 mmHg 29%
    14:00 +4°C° 0 mm 1 mps 770 mmHg 31%
    15:00 +4°C° 0 mm 1 mps 769 mmHg 34%
    16:00 +4°C° 0 mm 1 mps 769 mmHg 37%
    17:00 +2°C° 0 mm 0 mps 769 mmHg 39%
    18:00 +1°C° 0 mm 0 mps 769 mmHg 40%
    19:00 0°C° 0 mm 0 mps 769 mmHg 42%
    20:00 0°C° 0 mm 0 mps 769 mmHg 43%
    21:00 0°C° 0 mm 0 mps 769 mmHg 43%
    22:00 0°C° 0 mm 0 mps 769 mmHg 44%
    23:00 0°C° 0 mm 0 mps 769 mmHg 45%

    Day after tomorrow, 25 February, Monday

    Time Temperature Precipitation Wind Pressure Humidity
    00:00 0°C° 0 mm 0 mps 769 mmHg 45%
    01:00 0°C° 0 mm 0 mps 769 mmHg 45%
    02:00 0°C° 0 mm 0 mps 769 mmHg 45%
    03:00 0°C° 0 mm 0 mps 769 mmHg 45%
    04:00 0°C° 0 mm 0 mps 768 mmHg 45%
    05:00 0°C° 0 mm 0 mps 769 mmHg 44%
    06:00 0°C° 0 mm 0 mps 769 mmHg 43%
    07:00 0°C° 0 mm 0 mps 769 mmHg 42%
    08:00 +3°C° 0 mm 1 mps 769 mmHg 40%
    09:00 +4°C° 0 mm 1 mps 769 mmHg 37%
    10:00 +5°C° 0 mm 1 mps 769 mmHg 34%
    11:00 +6°C° 0 mm 1 mps 769 mmHg 34%
    12:00 +6°C° 0 mm 2 mps 769 mmHg 35%
    13:00 +7°C° 0 mm 2 mps 769 mmHg 36%
    14:00 +7°C° 0 mm 2 mps 768 mmHg 38%
    15:00 +7°C° 0 mm 2 mps 768 mmHg 41%
    16:00 +7°C° 0 mm 2 mps 767 mmHg 43%
    17:00 +6°C° 0 mm 2 mps 767 mmHg 47%
    18:00 +5°C° 0 mm 2 mps 767 mmHg 51%
    19:00 +4°C° 0 mm 2 mps 767 mmHg 55%
    20:00 +4°C° 0 mm 2 mps 766 mmHg 58%
    21:00 +3°C° 0 mm 2 mps 766 mmHg 61%
    22:00 +3°C° 0 mm 2 mps 766 mmHg 63%
    23:00 +3°C° 0 mm 1 mps 766 mmHg 65%

    26 February, Tuesday

    Time Temperature Precipitation Wind Pressure Humidity
    00:00 +3°C° 0 mm 1 mps 766 mmHg 67%
    01:00 +3°C° 0 mm 1 mps 766 mmHg 69%
    02:00 +3°C° 0 mm 1 mps 765 mmHg 70%
    03:00 +1°C° 0 mm 0 mps 765 mmHg 72%
    04:00 +1°C° 0 mm 0 mps 765 mmHg 73%
    05:00 +1°C° 0 mm 0 mps 764 mmHg 73%
    06:00 +1°C° 0 mm 0 mps 764 mmHg 72%
    07:00 +2°C° 0 mm 0 mps 764 mmHg 72%
    08:00 +4°C° 0 mm 1 mps 764 mmHg 67%
    09:00 +5°C° 0 mm 1 mps 764 mmHg 63%
    10:00 +7°C° 0 mm 1 mps 763 mmHg 58%
    11:00 +7°C° 0 mm 2 mps 763 mmHg 57%
    12:00 +8°C° 0 mm 2 mps 762 mmHg 55%
    13:00 +9°C° 0 mm 3 mps 762 mmHg 54%
    14:00 +9°C° 0 mm 2 mps 761 mmHg 57%
    15:00 +9°C° 0 mm 2 mps 760 mmHg 61%
    16:00 +8°C° 0 mm 2 mps 760 mmHg 64%
    17:00 +8°C° 0 mm 2 mps 760 mmHg 69%
    18:00 +7°C° 0 mm 2 mps 760 mmHg 73%
    19:00 +6°C° 0 mm 2 mps 760 mmHg 78%
    20:00 +5°C° 0 mm 2 mps 760 mmHg 79%
    21:00 +4°C° 0 mm 3 mps 761 mmHg 79%
    22:00 +3°C° 0 mm 3 mps 761 mmHg 80%
    23:00 +3°C° 0 mm 3 mps 761 mmHg 79%

    27 February, Wednesday

    Time Temperature Precipitation Wind Pressure Humidity
    00:00 +3°C° 0 mm 3 mps 761 mmHg 78%
    01:00 +3°C° 0 mm 3 mps 762 mmHg 77%
    02:00 +3°C° 0 mm 3 mps 762 mmHg 78%
    03:00 +2°C° 0 mm 3 mps 762 mmHg 79%
    04:00 +2°C° 0 mm 3 mps 762 mmHg 80%
    05:00 +3°C° 0 mm 2 mps 763 mmHg 80%
    06:00 +2°C° 0 mm 2 mps 763 mmHg 80%
    07:00 +2°C° 0 mm 2 mps 763 mmHg 80%
    08:00 +4°C° 0 mm 2 mps 763 mmHg 72%
    09:00 +5°C° 0 mm 2 mps 763 mmHg 64%
    10:00 +7°C° 0 mm 2 mps 764 mmHg 56%
    11:00 +8°C° 0 mm 2 mps 763 mmHg 52%
    12:00 +9°C° 0 mm 2 mps 763 mmHg 48%
    13:00 +10°C° 0 mm 2 mps 763 mmHg 43%
    14:00 +10°C° 0 mm 2 mps 762 mmHg 43%
    15:00 +12°C° 0 mm 2 mps 762 mmHg 43%
    16:00 +12°C° 0 mm 2 mps 761 mmHg 43%
    17:00 +9°C° 0 mm 2 mps 761 mmHg 47%
    18:00 +8°C° 0 mm 2 mps 761 mmHg 51%
    19:00 +7°C° 0 mm 2 mps 761 mmHg 55%
    20:00 +5°C° 0 mm 3 mps 761 mmHg 58%
    21:00 +5°C° 0 mm 3 mps 760 mmHg 60%
    22:00 +5°C° 0 mm 3 mps 760 mmHg 63%
    23:00 +4°C° 0 mm 3 mps 760 mmHg 68%

    28 February, Thursday

    Time Temperature Precipitation Wind Pressure Humidity
    00:00 +5°C° 0 mm 2 mps 759 mmHg 72%
    01:00 +5°C° 0 mm 2 mps 759 mmHg 77%
    02:00 +4°C° 0 mm 2 mps 758 mmHg 80%
    03:00 +4°C° 0 mm 2 mps 758 mmHg 83%
    04:00 +4°C° 0 mm 2 mps 757 mmHg 86%
    05:00 +4°C° 0 mm 2 mps 757 mmHg 87%
    06:00 +4°C° 0 mm 2 mps 757 mmHg 87%
    07:00 +3°C° 0 mm 2 mps 757 mmHg 87%
    08:00 +5°C° 0 mm 3 mps 756 mmHg 77%
    09:00 +7°C° 0 mm 4 mps 756 mmHg 67%
    10:00 +9°C° 0 mm 5 mps 756 mmHg 57%
    11:00 +10°C° 0 mm 6 mps 755 mmHg 51%
    12:00 +12°C° 0 mm 7 mps 754 mmHg 45%
    13:00 +13°C° 0 mm 8 mps 753 mmHg 39%
    14:00 +13°C° 0 mm 8 mps 753 mmHg 43%
    15:00 +13°C° 0 mm 8 mps 752 mmHg 46%
    16:00 +14°C° 0 mm 7 mps 752 mmHg 49%
    17:00 +12°C° 0 mm 7 mps 752 mmHg 54%
    18:00 +11°C° 0 mm 6 mps 752 mmHg 59%
    19:00 +9°C° 0 mm 6 mps 752 mmHg 63%
    20:00 +9°C° 0 mm 6 mps 752 mmHg 65%
    21:00 +9°C° 0 mm 6 mps 753 mmHg 66%
    22:00 +8°C° 0 mm 7 mps 753 mmHg 67%
    23:00 +8°C° 0 mm 6 mps 753 mmHg 67%
    Show more